Torna al catalogo

CZ-3B R/B

AttivoLPO
NORAD 43846·ROCKET BODY·🇨🇳 China

Lanciato Dec 7, 2018 da Xichang Satellite Launch Center

Loading…

TLE

ObsoletoSource: Space-Track

Epoca: Apr 5, 2024, 20:58 UTC

1 43846U 18103B   24096.87404494 -.00009917  00000-0  00000-0 0  9996
2 43846  31.9415  54.2907 1190432 266.5194 105.7077  0.01195432   103

Traccia CZ-3B R/B in tempo reale con AllMySat

Download on the App Store